Change the Weather History Date:

Friday, March 29, 2013

  Actual Average Record
Temperature  
Mean Temperature 29 °F -  
Max Temperature 42 °F 39 °F 53 °F (1978)
Min Temperature 15 °F 14 °F -9 °F (2003)
Degree Days  
Heating Degree Days 36 38  
Month to date heating degree days 1243 1197  
Since 1 July heating degree days 8785 8907  
Cooling Degree Days 0 0  
Month to date cooling degree days 0 0  
Year to date cooling degree days 0 0  
Moisture  
Dew Point 22 °F    
Average Humidity 61    
Maximum Humidity 88    
Minimum Humidity 34    
Precipitation  
Precipitation 0.02 in 0.03 in 0.23 in (2007)
Month to date precipitation 1.51 0.87  
Year to date precipitation 3.13 2.19  
Sea Level Pressure  
Sea Level Pressure 30.16 in    
Wind  
Wind Speed 7 mph (North)    
Max Wind Speed 24 mph    
Max Gust Speed 35 mph    
Visibility 8 miles    
Events Snow    
T = Trace of Precipitation, MM = Missing Value Source: NWS Daily Summary

Daily Weather History Graph

Daily Weather History Graph

Search for Another Location

Airport or City:

Trip Planner

Search our weather history database for the weather conditions in past years. The results will help you decide how hot, cold, wet, or windy it might be!

Date:

Astronomy

Mar. 29, 2013 Rise Set
Actual Time 6:53 AM MDT 7:26 PM MDT
Civil Twilight 6:27 AM MDT 7:53 PM MDT
Nautical Twilight 5:55 AM MDT 8:25 PM MDT
Astronomical Twilight 5:22 AM MDT 8:57 PM MDT
Moon 10:28 PM MDT (3/29) 8:06 AM MDT (3/29)
Length of Visible Light 13h 26m
Length of Day
12h 32m
Waning Gibbous, 93% of the Moon is Illuminated
Mar 29
Waning Gibbous
Apr 2
Last Quarter
Apr 10
New
Apr 18
First Quarter
Apr 25
Full

Hourly Weather History & Observations

Time (MDT) Temp. Windchill Dew Point Humidity Pressure Visibility Wind Dir Wind Speed Gust Speed Precip Events Conditions
12:53 AM 26.1 °F 21.9 °F 17.1 °F 69% 30.03 in 10.0 mi ENE 3.5 mph - N/A   Partly Cloudy
1:53 AM 19.0 °F - 15.1 °F 85% 30.11 in 10.0 mi Calm Calm - N/A   Scattered Clouds
2:53 AM 21.9 °F 15.7 °F 16.0 °F 78% 30.07 in 10.0 mi South 4.6 mph - N/A   Clear
3:53 AM 21.0 °F 14.6 °F 15.1 °F 78% 30.09 in 10.0 mi NE 4.6 mph - N/A   Clear
4:53 AM 16.0 °F 8.8 °F 12.0 °F 84% 30.10 in 10.0 mi NNE 4.6 mph - N/A   Clear
5:53 AM 17.1 °F 5.0 °F 12.9 °F 84% 30.15 in 10.0 mi NE 10.4 mph - N/A   Clear
6:53 AM 25.0 °F 15.5 °F 18.0 °F 75% 30.11 in 10.0 mi NNE 9.2 mph - N/A   Mostly Cloudy
7:53 AM 28.0 °F - 21.0 °F 75% 30.13 in 10.0 mi Calm Calm - N/A   Mostly Cloudy
8:53 AM 30.0 °F - 21.0 °F 69% 30.13 in 10.0 mi Calm Calm - N/A   Partly Cloudy
9:53 AM 34.0 °F 31.0 °F 21.9 °F 61% 30.13 in 10.0 mi North 3.5 mph - N/A   Overcast
10:34 AM 30.2 °F 20.8 °F 24.8 °F 80% 30.29 in 1.8 mi North 11.5 mph 20.7 mph 0.00 in Snow Light Snow
10:41 AM 33.8 °F 27.0 °F 26.6 °F 75% 30.29 in 3.0 mi North 8.1 mph - 0.00 in Snow Light Snow
10:53 AM 34.0 °F 28.0 °F 24.1 °F 67% 30.12 in 7.0 mi North 6.9 mph - 0.00 in Snow Light Snow
11:53 AM 39.0 °F 31.4 °F 21.0 °F 49% 30.08 in 10.0 mi West 12.7 mph 23.0 mph 0.01 in   Mostly Cloudy
12:53 PM 39.9 °F 32.1 °F 19.0 °F 43% 30.06 in 10.0 mi WSW 13.8 mph 17.3 mph N/A   Mostly Cloudy
1:53 PM 39.9 °F 32.1 °F 21.0 °F 47% 30.09 in 10.0 mi North 13.8 mph 24.2 mph N/A   Mostly Cloudy
2:53 PM 41.0 °F 32.8 °F 16.0 °F 36% 30.04 in 10.0 mi WNW 16.1 mph 19.6 mph N/A   Mostly Cloudy
3:53 PM 42.1 °F 37.1 °F 18.0 °F 38% 30.06 in 10.0 mi NNW 8.1 mph 17.3 mph 0.00 in   Mostly Cloudy
4:53 PM 39.9 °F 32.5 °F 23.0 °F 51% 30.13 in 10.0 mi NNW 12.7 mph 27.6 mph N/A   Overcast
5:32 PM 33.8 °F 22.5 °F 26.6 °F 75% 30.29 in 1.0 mi NW 19.6 mph 31.1 mph 0.00 in Snow Light Snow
5:39 PM 32.0 °F 19.8 °F 26.6 °F 80% 30.30 in 0.5 mi NNW 20.7 mph 31.1 mph 0.01 in Snow Snow
5:49 PM 30.2 °F 18.5 °F 26.6 °F 86% 30.28 in 1.0 mi North 17.3 mph 25.3 mph 0.01 in Snow Light Snow
5:53 PM 30.9 °F 20.2 °F 27.0 °F 85% 30.20 in 1.2 mi North 15.0 mph 21.9 mph 0.01 in Snow Light Snow
5:57 PM 30.2 °F 20.8 °F 26.6 °F 86% 30.28 in 3.0 mi NNE 11.5 mph 21.9 mph 0.00 in Snow Light Snow
6:53 PM 33.1 °F - 24.1 °F 70% 30.14 in 10.0 mi Calm Calm - 0.00 in   Scattered Clouds
7:53 PM 30.0 °F 26.5 °F 26.1 °F 85% 30.14 in 5.0 mi Variable 3.5 mph 19.6 mph 0.00 in Snow Light Snow
8:53 PM 30.0 °F 24.1 °F 23.0 °F 75% 30.13 in 10.0 mi NE 5.8 mph - 0.00 in   Clear
9:53 PM 30.0 °F - 24.1 °F 79% 30.12 in 5.0 mi Calm Calm - 0.00 in Snow Light Snow
10:09 PM 28.4 °F 23.3 °F 24.8 °F 86% 30.31 in 10.0 mi East 4.6 mph - 0.00 in   Overcast
10:22 PM 30.2 °F 22.6 °F 24.8 °F 80% 30.31 in 10.0 mi North 8.1 mph - 0.00 in   Overcast
10:53 PM 30.0 °F 24.1 °F 24.1 °F 79% 30.11 in 10.0 mi NNE 5.8 mph - 0.00 in   Mostly Cloudy
11:39 PM 28.4 °F 19.1 °F 26.6 °F 93% 30.31 in 2.0 mi NNE 10.4 mph - 0.00 in Snow Light Snow
11:53 PM 28.0 °F 20.0 °F 25.0 °F 88% 30.09 in 10.0 mi NE 8.1 mph - 0.00 in   Scattered Clouds